User: anonymous   Login
Location: The D'Auria's Ocala Star Observatory
(29.0276°N, 82.1742°W)
Time: 17:27:47
(UTC-04:00)
Language:

Okean 3 Rocket - Orbit

View from above orbital plane
View from above orbital plane
View from above satellite
View from above satellite

Ground track
Ground track

The orbit data is extracted from the following two-line orbital elements,

1 21398U 91039B   15245.72465722 +.00000121 +00000-0 +12988-4 0  9993
2 21398 082.5223 114.4267 0021975 160.5622 262.9027 14.79508535286245
Epoch (UTC): 02 September 2015 17:23:30
Eccentricity: 0.0021975
inclination: 82.5223°
perigee height: 615 km
apogee height: 646 km
right ascension of ascending node: 114.4267°
argument of perigee: 160.5622°
revolutions per day: 14.79508535
mean anomaly at epoch: 262.9027°
orbit number at epoch: 28624

The dashed part of the orbit path shows where the satellite is in the earth's shadow,  

DLR